[[{"header":{"parameterUnit":"m.s-1","parameterCategory":1,"la1":30.2991,"la2":30.254,"lo1":-89.0895,"lo2":-89.0444,"dy":0.0017,"dx":0.0017,"nx":28,"ny":28,"refTime":"2026-02-05T09:00:00:Z","depth":0,"parameterNumber":2,"parameterNumberName":"U-component_of_WINDS"},"data":[0,0,0,0,0,0,0,0,0,0,0,0,0,0,0,0,0,0,0,0,0,0,0,0,0,0,0,0,0,0,0,0,0,0,0,0,0,0,0,0,0,0,0,0,0,0,0,0,0,0,0,0,0,0,0,0,0,0,5.0457,5.0459,0,5.0658,5.066,5.0663,5.0586,5.0581,5.0577,5.0572,5.0785,5.0795,5.0804,0,0,0,0,0,0,0,0,0,0,0,0,0,5.0012,5.002,5.0457,5.0459,5.0462,5.0658,5.0661,5.0663,5.0587,5.0581,5.0575,5.057,5.0782,5.0793,5.0805,0,0,0,0,0,0,0,0,0,0,0,0,0,5.0208,5.0023,5.0456,5.0447,5.0448,5.0657,5.0661,5.0664,5.0588,5.0581,5.0574,5.0567,5.0778,5.0792,5.0807,5.1039,0,0,5.0853,5.0859,0,0,0,0,0,0,0,0,5.0197,5.0225,5.0446,5.0448,5.045,5.059,5.0581,5.079,5.059,5.0535,5.0572,5.0564,5.0726,5.0745,5.0798,5.1049,5.1058,5.0854,5.0863,5.087,5.0874,0,0,0,0,0,0,0,5.0184,5.0216,5.0537,5.0449,5.0452,5.0435,5.0455,5.0621,5.0667,5.0539,5.0534,5.0559,5.0726,5.0784,5.0802,5.1061,5.0854,5.0867,5.0876,5.0882,5.1513,5.152,0,0,0,0,0,0,5.0169,5.0205,5.053,5.0543,5.0304,5.0448,5.0471,5.0552,5.0665,5.0676,5.0564,5.0554,5.0762,5.0785,5.081,5.1088,5.087,5.0884,5.0892,5.1505,5.1514,5.1523,0,0,0,0,0,0,5.0159,5.0198,5.0522,5.0373,5.0412,5.0463,5.0555,5.056,5.0617,5.0684,5.0693,5.0615,5.0757,5.0789,5.0982,5.1095,5.089,5.0904,5.1496,5.1508,5.1519,5.1648,0,0,0,0,0,0,5.0147,5.0196,5.0283,5.0375,5.0421,5.069,5.0562,5.0569,5.0643,5.0631,5.0734,5.0744,5.0754,5.096,5.0997,5.1112,5.0916,5.1486,5.1501,5.1515,5.1634,5.1663,5.1687,0,0,0,0,0,5.0131,5.0313,5.0288,5.0328,5.0531,5.0697,5.0723,5.0729,5.0652,5.0741,5.0784,5.0741,5.1076,5.0981,5.1021,5.1142,5.1479,5.1497,5.1514,5.1622,5.1657,5.1687,0,0,0,0,0,0,5.0236,5.0325,5.0298,5.0514,5.0598,5.0683,5.0796,5.0766,5.0875,5.086,5.0864,5.0888,5.1087,5.1134,5.1026,5.1373,5.1266,5.1293,5.1335,5.1369,5.1395,5.1379,5.0928,0,0,0,0,0,5.0283,5.0409,5.0481,5.0665,5.0708,5.0745,5.0817,5.0814,5.0902,5.0938,5.0995,5.1084,5.1209,5.1291,5.141,5.164,5.1662,5.1744,5.177,5.1792,5.1815,5.194,5.1977,5.158,5.158,5.158,0,0,5.0384,5.0448,5.0528,5.0687,5.0752,5.0883,5.0775,5.0919,5.1017,5.096,5.1146,5.1191,5.129,5.1503,5.1599,5.1548,5.1929,5.1814,5.1831,5.1842,5.1962,5.1999,5.2033,5.1592,5.159,5.1588,0,0,5.0634,5.0696,5.0855,5.0921,5.102,5.1043,5.1081,5.1171,5.1198,5.1384,5.1344,5.1461,5.1677,5.1749,5.1814,5.2091,5.2056,5.213,5.2269,5.2391,5.2422,5.245,5.2549,5.2584,5.2153,5.2153,5.2153,0,5.0748,5.0942,5.0942,5.1088,5.116,5.1112,5.1275,5.134,5.1473,5.1525,5.1465,5.1734,5.1797,5.2026,5.2093,5.2148,5.2192,5.2118,5.2417,5.2445,5.2471,5.2565,5.2603,5.2161,5.216,5.216,5.2159,0,5.1076,5.1212,5.1329,5.1456,5.1541,5.1695,5.172,5.1806,5.1796,5.1826,5.2016,5.209,5.2223,5.2277,5.227,5.2506,5.2471,5.2415,5.2308,5.2517,5.2606,5.2642,5.2173,5.217,5.2168,5.2166,0,0,5.1399,5.1522,5.1565,5.1622,5.1726,5.1832,5.1984,5.2112,5.2186,5.228,5.2408,5.2591,5.2539,5.2613,5.2613,5.272,5.2935,5.2651,5.2653,5.2701,5.3199,5.324,5.3282,5.2911,5.2918,5.2924,5.319,0,5.1657,5.1921,5.1925,5.2169,5.2294,5.2251,5.2383,5.2463,5.2495,5.2607,5.2644,5.2773,5.2695,5.2739,5.2843,5.2886,5.3035,5.2867,5.3032,5.3038,5.3008,5.3328,5.3372,5.362,5.3225,5.3231,5.3235,0,5.1993,5.2095,5.235,5.2435,5.2488,5.2607,5.2724,5.2832,5.2921,5.2937,5.3019,5.3003,5.316,5.3048,5.3265,5.3151,5.3218,5.325,5.326,5.3275,5.3149,5.3352,5.3699,5.3737,5.329,5.3285,5.3281,0,5.2202,5.2403,5.2581,5.2631,5.2736,5.282,5.2868,5.295,5.3027,5.313,5.318,5.3301,5.3367,5.3462,5.348,5.3396,5.3697,5.3587,5.3716,5.3715,5.3781,5.3777,5.4144,5.3825,5.3825,5.3824,5.3823,0,5.249,5.2648,5.2676,5.2786,5.2962,5.2966,5.3141,5.3182,5.3256,5.3374,5.3345,5.3457,5.3473,5.359,5.3605,5.3782,5.3813,5.3831,5.3833,5.3834,5.3831,5.3878,5.3861,5.3834,5.3832,5.383,5.3828,0,5.2753,5.2778,5.2969,5.3052,5.3076,5.3202,5.3274,5.338,5.3408,5.3558,5.3594,5.364,5.3776,5.3802,5.3964,5.3973,5.4184,5.417,5.4153,5.4152,5.4279,5.4267,5.4689,5.4745,5.439,5.4394,5.4396,0,5.2934,5.3054,5.3149,5.3225,5.3276,5.3399,5.3476,5.3485,5.3567,5.3677,5.377,5.3902,5.4008,5.4228,5.4277,5.44,5.4387,5.4527,5.4406,5.4402,5.4389,5.4382,5.4394,5.455,5.4554,5.4557,5.456,0,5.3254,5.326,5.3371,5.3487,5.3579,5.3671,5.3758,5.3823,5.3844,5.3937,5.4074,5.4156,5.432,5.4452,5.4574,5.4625,5.4598,5.4597,5.4634,5.4635,5.462,5.463,5.4216,5.4588,5.4585,5.4583,5.4581,5.458,5.3482,5.3586,5.3668,5.3793,5.3859,5.3941,5.4044,5.4085,5.4198,5.433,5.4329,5.4479,5.4566,5.4728,5.4787,5.4905,5.4861,5.4914,5.4928,5.494,5.4952,5.4602,5.4928,5.4927,5.4926,5.4926,5.4925,0,5.3799,5.385,5.3964,5.4086,5.4184,5.4146,5.4241,5.4326,5.4458,5.454,5.4644,5.4802,5.4929,5.4988,5.5114,5.5198,5.5188,5.5231,5.5224,5.5237,5.4984,5.494,5.5236,5.5236,5.5236,5.5236,5.5236,5.5236,5.3976,5.415,5.4166,5.4373,5.4423,5.4568,5.4625,5.4702,5.4767,5.4943,5.5048,5.5084,5.5158,5.5288,5.5404,5.5418,5.5466,5.5515,5.5523,5.5286,5.5255,5.5224,5.5183,5.5525,5.5526,5.5765,5.5768,5.5769]},{"header":{"parameterUnit":"m.s-1","parameterCategory":1,"la1":30.2991,"la2":30.254,"lo1":-89.0895,"lo2":-89.0444,"dy":0.0017,"dx":0.0017,"nx":28,"ny":28,"refTime":"2026-02-05T09:00:00:Z","depth":0,"parameterNumber":3,"parameterNumberName":"V-component_of_WINDS"},"data":[0,0,0,0,0,0,0,0,0,0,0,0,0,0,0,0,0,0,0,0,0,0,0,0,0,0,0,0,0,0,0,0,0,0,0,0,0,0,0,0,0,0,0,0,0,0,0,0,0,0,0,0,0,0,0,0,0,0,0.7496,0.7496,0,0.7432,0.7432,0.7431,0.7384,0.7384,0.7384,0.7383,0.7314,0.7313,0.7311,0,0,0,0,0,0,0,0,0,0,0,0,0,0.7575,0.7573,0.7497,0.7496,0.7495,0.7432,0.7431,0.7431,0.7385,0.7384,0.7384,0.7383,0.7315,0.7313,0.7311,0,0,0,0,0,0,0,0,0,0,0,0,0,0.7529,0.7573,0.7497,0.7464,0.7461,0.7433,0.7431,0.743,0.7385,0.7384,0.7383,0.7383,0.7315,0.7313,0.7311,0.7308,0,0,0.7304,0.7303,0,0,0,0,0,0,0,0,0.7531,0.7526,0.747,0.7467,0.7463,0.7416,0.7434,0.7389,0.7385,0.7413,0.7383,0.7383,0.7348,0.7343,0.7332,0.7305,0.7302,0.7304,0.7303,0.7302,0.7301,0,0,0,0,0,0,0,0.7534,0.7528,0.7471,0.7469,0.7465,0.7452,0.7445,0.7425,0.7385,0.7411,0.7407,0.7401,0.7346,0.7335,0.733,0.7301,0.7304,0.7302,0.7301,0.73,0.7266,0.7266,0,0,0,0,0,0,0.7543,0.7531,0.7473,0.7469,0.7496,0.7451,0.7443,0.7431,0.7385,0.7377,0.7401,0.7399,0.7339,0.7333,0.7328,0.7321,0.7302,0.73,0.7298,0.7266,0.7266,0.7267,0,0,0,0,0,0,0.7545,0.7539,0.7476,0.7499,0.749,0.745,0.7438,0.743,0.7419,0.7378,0.737,0.7397,0.7338,0.7331,0.7313,0.7318,0.7298,0.7296,0.7265,0.7266,0.7266,0.7307,0,0,0,0,0,0,0.7548,0.754,0.7539,0.75,0.7489,0.7464,0.7438,0.743,0.7416,0.7412,0.7372,0.7364,0.7337,0.7317,0.7311,0.7314,0.7295,0.7264,0.7265,0.7266,0.7305,0.7309,0.7312,0,0,0,0,0,0.7551,0.7553,0.754,0.7533,0.7488,0.7464,0.7458,0.7428,0.7416,0.7415,0.7388,0.7366,0.7318,0.7315,0.7309,0.7311,0.7264,0.7265,0.7266,0.7303,0.7308,0.7312,0,0,0,0,0,0,0.7594,0.7547,0.7532,0.7522,0.7498,0.7457,0.7454,0.7434,0.7411,0.7408,0.737,0.7361,0.7347,0.7327,0.7325,0.7305,0.7288,0.7288,0.7319,0.7323,0.7327,0.7332,0.7293,0,0,0,0,0,0.7602,0.7588,0.7548,0.7543,0.7531,0.7495,0.7483,0.7462,0.7434,0.7423,0.7395,0.7368,0.7347,0.7334,0.7312,0.7302,0.7291,0.73,0.7303,0.7306,0.7306,0.7297,0.73,0.727,0.727,0.727,0,0,0.762,0.7592,0.7586,0.7551,0.7529,0.7513,0.7486,0.7472,0.7459,0.7421,0.7402,0.7381,0.7348,0.7333,0.7326,0.7316,0.7312,0.7308,0.731,0.7309,0.7299,0.7302,0.7304,0.7271,0.727,0.727,0,0,0.7643,0.7622,0.7615,0.7594,0.7561,0.7537,0.7535,0.7497,0.7481,0.7462,0.7433,0.7416,0.7381,0.7358,0.7342,0.7355,0.7333,0.7349,0.7367,0.7359,0.7362,0.7363,0.7367,0.7369,0.7349,0.7349,0.7349,0,0.7669,0.7645,0.7613,0.76,0.7584,0.7549,0.7541,0.7521,0.7483,0.7473,0.7463,0.7416,0.7392,0.7371,0.7374,0.7362,0.7358,0.7353,0.7364,0.7366,0.7367,0.737,0.7371,0.7351,0.7351,0.7351,0.735,0,0.7677,0.7661,0.7659,0.7624,0.7608,0.7598,0.7562,0.755,0.7529,0.7505,0.7485,0.7454,0.7424,0.7418,0.7397,0.7393,0.7388,0.7372,0.7354,0.7373,0.7374,0.7375,0.7354,0.7353,0.7353,0.7352,0,0,0.7728,0.7674,0.7674,0.7657,0.7618,0.7604,0.759,0.7562,0.7552,0.7526,0.7513,0.7482,0.7466,0.7448,0.7424,0.7417,0.7427,0.7401,0.74,0.7406,0.7419,0.7432,0.7434,0.7412,0.7413,0.7413,0.7422,0,0.7745,0.772,0.769,0.7675,0.7659,0.7624,0.7612,0.7586,0.7562,0.7544,0.7517,0.7496,0.7477,0.7466,0.7457,0.7428,0.7429,0.7427,0.7398,0.7397,0.7407,0.7435,0.7448,0.7458,0.7422,0.7422,0.7422,0,0.7762,0.7739,0.7722,0.7683,0.7675,0.7665,0.7636,0.7619,0.7588,0.7571,0.755,0.7524,0.7506,0.749,0.7463,0.7462,0.7448,0.7432,0.7431,0.7427,0.7411,0.7431,0.7461,0.7462,0.7423,0.7423,0.7423,0,0.7799,0.7763,0.7749,0.7735,0.769,0.7683,0.7663,0.7631,0.7616,0.759,0.7579,0.7551,0.7535,0.7513,0.7479,0.7471,0.7455,0.7437,0.7439,0.744,0.7438,0.7439,0.7466,0.743,0.743,0.743,0.743,0,0.7821,0.7812,0.7765,0.7756,0.7744,0.7708,0.7697,0.7674,0.7645,0.763,0.7597,0.7583,0.754,0.7519,0.7493,0.7474,0.7467,0.7451,0.7444,0.7454,0.7456,0.7445,0.7443,0.743,0.743,0.743,0.743,0,0.7861,0.7829,0.7811,0.7769,0.7758,0.7751,0.7714,0.7703,0.7677,0.7657,0.7651,0.761,0.7584,0.7548,0.7511,0.7493,0.7477,0.7466,0.7489,0.7484,0.7488,0.7488,0.7509,0.7509,0.7474,0.7474,0.7474,0,0.7878,0.787,0.7827,0.7815,0.7797,0.7777,0.7761,0.7725,0.7709,0.7672,0.7664,0.7637,0.7612,0.7572,0.7538,0.7509,0.7497,0.7506,0.7492,0.7502,0.7496,0.7497,0.7495,0.751,0.751,0.7511,0.7511,0,0.7909,0.7893,0.7873,0.7846,0.7828,0.7804,0.7779,0.777,0.7728,0.7712,0.7686,0.7667,0.7629,0.7601,0.7567,0.7545,0.752,0.7515,0.7514,0.7524,0.7537,0.7529,0.7497,0.7515,0.7515,0.7514,0.7514,0.7514,0.7937,0.7928,0.7897,0.7874,0.7851,0.7828,0.7815,0.7788,0.7766,0.7733,0.7712,0.7687,0.7653,0.7605,0.7583,0.7561,0.7552,0.755,0.755,0.755,0.7553,0.7541,0.7555,0.7555,0.7555,0.7555,0.7554,0,0.7967,0.7944,0.7924,0.789,0.7871,0.7851,0.7821,0.7807,0.7785,0.7756,0.7733,0.7702,0.7674,0.7637,0.7606,0.7595,0.7583,0.7588,0.7589,0.7583,0.7564,0.7568,0.7599,0.7599,0.7599,0.7599,0.7599,0.7599,0.798,0.7963,0.7943,0.7914,0.7891,0.7867,0.7852,0.783,0.7806,0.7774,0.7751,0.7727,0.7694,0.766,0.7633,0.7623,0.7612,0.7621,0.7607,0.7589,0.7585,0.7581,0.7585,0.7619,0.7619,0.7628,0.7628,0.7628]}]]